Flight Track Log - Related Links

Times and Time Zones

All times are in EDT time to prevent confusion due to time zone crossing. See the N12JD flight status page for this flight to view local times or setup timezone preferences in your user account.

Time Position Orientation Groundspeed Altitude Reporting Facility
EDT Latitude Longitude Course Direction KTS MPH feet Rate Location/Type
Tue 03:48:50 PM 28.2833 -81.4333 221° Southwest 120 138 500  Level Orlando TRACON
Tue 03:50:02 PM 28.2500 -81.4667 221° Southwest 172 198 2,600 1,636 Climbing Orlando TRACON
Tue 03:51:02 PM 28.2833 -81.5167 307° West 199 229 4,100 694 Climbing Orlando TRACON
Tue 03:52:03 PM 28.3167 -81.5667 307° West 240 276 4,000 545 Descending Orlando TRACON
Tue 03:53:03 PM 28.3500 -81.6333 300° West 194 223 5,200 1,368 Climbing Orlando TRACON
Tue 03:53:57 PM 28.3833 -81.6667 319° Northwest 183 211 6,600 1,330 Climbing Orlando TRACON
Tue 03:55:59 PM 28.4681 -81.7167 333° Northwest 192 221 9,100 1,253 Climbing Jacksonville Center
Tue 03:56:59 PM 28.5142 -81.7444 332° Northwest 187 215 10,400 1,350 Climbing Jacksonville Center
Tue 03:57:59 PM 28.5561 -81.7722 330° Northwest 181 208 11,800 850 Climbing Jacksonville Center
Tue 03:58:59 PM 28.6025 -81.8119 323° Northwest 188 216 12,100 200 Climbing Jacksonville Center
Tue 03:59:59 PM 28.6447 -81.8683 310° West 211 243 12,200 750 Climbing Jacksonville Center
Tue 04:00:59 PM 28.6867 -81.9153 316° Northwest 225 259 13,600 1,450 Climbing Jacksonville Center
Tue 04:01:59 PM 28.7350 -81.9456 331° Northwest 213 245 15,100 1,500 Climbing Jacksonville Center
Tue 04:02:59 PM 28.7789 -81.9736 331° Northwest 193 222 16,600 1,350 Climbing Jacksonville Center
Tue 04:03:59 PM 28.8208 -82.0017 330° Northwest 188 216 17,800 700 Climbing Jacksonville Center
Tue 04:04:59 PM 28.8692 -82.0319 331° Northwest 188 216 18,000 100 Climbing Jacksonville Center
Tue 04:05:59 PM 28.9278 -82.0647 334° Northwest 207 238 18,000  Level Jacksonville Center
Tue 04:06:59 PM 28.9906 -82.1069 330° Northwest 221 254 18,000  Level Jacksonville Center
Tue 04:07:59 PM 29.0536 -82.1492 330° Northwest 240 276 18,000  Level Jacksonville Center
Tue 04:08:59 PM 29.1142 -82.1842 333° Northwest 250 288 18,000  Level Jacksonville Center
Tue 04:09:59 PM 29.1731 -82.2242 329° Northwest 250 288 18,000  Level Jacksonville Center
Tue 04:10:59 PM 29.2253 -82.2717 322° Northwest 250 288 18,000  Level Jacksonville Center
Tue 04:11:59 PM 29.2778 -82.3236 319° Northwest 245 282 18,000  Level Jacksonville Center
Tue 04:12:59 PM 29.3303 -82.3708 322° Northwest 245 282 18,000  Level Jacksonville Center
Tue 04:13:59 PM 29.3806 -82.4183 321° Northwest 245 282 18,000  Level Jacksonville Center
Tue 04:14:59 PM 29.4328 -82.4681 320° Northwest 245 282 18,000  Level Jacksonville Center
Tue 04:15:59 PM 29.4853 -82.5156 322° Northwest 239 275 18,000  Level Jacksonville Center
Tue 04:16:59 PM 29.5353 -82.5656 319° Northwest 239 275 18,000  Level Jacksonville Center
Tue 04:17:59 PM 29.5856 -82.6131 321° Northwest 239 275 18,000  Level Jacksonville Center
Tue 04:18:59 PM 29.6358 -82.6608 320° Northwest 245 282 18,000  Level Jacksonville Center
Tue 04:19:59 PM 29.6861 -82.7086 320° Northwest 245 282 18,000  Level Jacksonville Center
Tue 04:20:59 PM 29.7361 -82.7539 322° Northwest 233 268 18,000  Level Jacksonville Center
Tue 04:21:59 PM 29.7883 -82.8039 320° Northwest 233 268 18,000  Level Jacksonville Center
Tue 04:22:59 PM 29.8322 -82.8592 312° West 238 274 18,000  Level Jacksonville Center
Tue 04:23:59 PM 29.8803 -82.9167 314° West 233 268 18,000  Level Jacksonville Center
Tue 04:24:59 PM 29.9242 -82.9692 314° West 233 268 18,000 -200 Level Jacksonville Center
Tue 04:25:59 PM 29.9636 -83.0269 308° West 233 268 17,600 -750 Descending Jacksonville Center
Tue 04:26:59 PM 30.0075 -83.0844 311° West 238 274 16,500 -1,050 Descending Jacksonville Center
Tue 04:27:59 PM 30.0553 -83.1397 315° West 238 274 15,500 -1,050 Descending Jacksonville Center
Tue 04:28:59 PM 30.0992 -83.1975 311° West 238 274 14,400 -1,100 Descending Jacksonville Center
Tue 04:29:59 PM 30.1428 -83.2528 312° West 238 274 13,300 -1,050 Descending Jacksonville Center
Tue 04:30:59 PM 30.1864 -83.3083 312° West 238 274 12,300 -1,050 Descending Jacksonville Center
Tue 04:31:59 PM 30.2281 -83.3614 312° West 238 274 11,200 -650 Descending Jacksonville Center
Tue 04:32:59 PM 30.2697 -83.4169 311° West 238 274 11,000 -100 Descending Jacksonville Center
Tue 04:33:59 PM 30.3111 -83.4725 311° West 238 274 11,000  Level Jacksonville Center
Tue 04:34:59 PM 30.3547 -83.5256 300° West 238 274 11,000  Level Jacksonville Center
Tue 04:35:00 PM 30.3533 -83.5232 300° West  Level FlightAware Approximate
Tue 04:35:59 PM 30.3961 -83.5814 311° West 238 274 11,000  Level Jacksonville Center
Tue 04:36:52 PM 30.4397 -83.6322 315° West 233 268 10,600 -875 Descending Jacksonville Center
Tue 04:37:35 PM 30.4856 -83.6542 338° Northwest 242 278 9,600 -1,254 Descending Jacksonville Center
Tue 04:37:59 PM 30.5022 -83.6642 333° Northwest 233 268 9,200 -1,500 Descending Jacksonville Center
Tue 04:38:35 PM 30.5417 -83.6861 334° Northwest 229 264 8,100 -1,600 Descending Jacksonville Center
Tue 04:38:59 PM 30.5647 -83.6983 335° Northwest 233 268 7,600 -1,475 Descending Jacksonville Center
Tue 04:39:36 PM 30.6000 -83.7181 334° Northwest 226 260 6,600 -1,500 Descending Jacksonville Center
Tue 04:39:59 PM 30.6231 -83.7253 345° North 226 260 6,100 -1,522 Descending Jacksonville Center
Tue 04:40:43 PM 30.6644 -83.7522 331° Northwest 226 260 4,900 -1,500 Descending Jacksonville Center
Tue 04:40:59 PM 30.6792 -83.7572 344° North 220 253 4,600 -1,200 Descending Jacksonville Center
Tue 04:41:43 PM 30.7186 -83.7842 330° Northwest 220 253 3,700 -1,100 Descending Jacksonville Center
Tue 04:41:59 PM 30.7331 -83.7892 343° North 215 247 3,500 -885 Descending Jacksonville Center
Tue 04:42:44 PM 30.7664 -83.8114 330° Northwest 174 200 2,800 -900 Descending Jacksonville Center
Tue 04:42:59 PM 30.7769 -83.8114 360° North 197 227 2,600 -590 Descending Jacksonville Center
Tue 04:43:45 PM 30.8058 -83.8311 330° Northwest 163 188 2,200 -400 Descending Jacksonville Center
Tue 04:43:59 PM 30.8183 -83.8336 350° North 174 200 2,200  Level Jacksonville Center
Tue 04:44:59 PM 30.8542 -83.8122 27° Northeast 138 159 2,200 200 Level Jacksonville Center
Tue 04:45:59 PM 30.8836 -83.7808 42° Northeast 128 147 2,600 150 Climbing Jacksonville Center
Tue 04:46:59 PM 30.9172 -83.7450 42° Northeast 146 168 2,500 -48 Descending Jacksonville Center
Tue 04:48:05 PM 30.9508 -83.7114 41° Northeast 160 184 2,500  Level Jacksonville Center
Tue 04:49:06 PM 30.9906 -83.6875 27° Northeast 162 186 2,500  Level Jacksonville Center
Tue 04:49:59 PM 31.0175 -83.7144 319° Northwest 123 142 2,500  Level Jacksonville Center
Tue 04:50:59 PM 31.0278 -83.7581 285° West 118 136 2,500  Level Jacksonville Center
Tue 04:51:59 PM 30.9983 -83.7869 220° Southwest 102 117 2,500 -250 Level Jacksonville Center
Tue 04:52:59 PM 30.9753 -83.8086 219° Southwest 112 129 2,000 -553 Descending Jacksonville Center
Tue 04:53:15 PM 30.9667 -83.8181 223° Southwest 103 119 1,800 -700 Descending Jacksonville Center
Tue 04:53:59 PM 30.9500 -83.8350 221° Southwest 112 129 1,300 -667 Descending Jacksonville Center
Tue 04:54:09 PM 30.9417 -83.8419 216° Southwest 117 135 1,200 -400 Descending Jacksonville Center
Tue 04:54:59 PM 30.9311 -83.8492 210° Southwest 118 136 900 -393 Descending Jacksonville Center
Tue 04:55:10 PM 30.9225 -83.8636 235° Southwest 108 124 800 10,100 Descending Jacksonville Center
Tue 04:55:59 PM 30.9017 -83.8781 211° Southwest 118 136 11,000 12,490 Climbing Jacksonville Center
Tue 04:57:00 PM 30.9018 -83.8811 72° East  Level Estimated
Tue 05:04:00 PM 30.9018 -83.8811 251° West  Level Estimated
Tue 05:05:00 PM 30.9018 -83.8811 73° East  Level Estimated
Tue 05:06:00 PM 30.9018 -83.8811 73° East  Level Estimated
Tue 05:07:00 PM 30.9018 -83.8811 251° West  Level Estimated

Login

Don't have an account? Register now (free) for customized features, flight alerts, and more!